CAPE
115 440 377 662 718 1243 1757 1125 1314 1708 1813 1634 1842 2011 1944 1897 1715 1712 1899 2120 2136 1909 2023 1791 2090 2167 1833 1635 1205 1322 1208 851 1062 998 774 487 213 124 266 515 441 799 1087
287 500 546 727 1044 1253 1350 1327 1501 1721 1889 1623 1687 1957 1946 2023 1865 1899 1703 1810 1905 1759 1645 1424 1249 1587 1369 1491 1562 1049 1067 1376 1347 1189 1387 1222 966 333 226 753 870 864 966
389 851 656 1092 1453 1313 1396 1321 1459 1798 1854 1985 1685 1764 1991 1777 1896 1838 1274 1897 2019 1656 1579 1481 1409 1211 1459 1419 1489 1450 1243 1071 903 957 1483 1237 1210 994 572 513 917 799 332
684 527 548 976 1285 1480 1671 1811 1906 1894 2008 1788 1687 1970 1971 1975 1597 1337 1506 1841 1552 1624 1404 1336 1371 1301 1127 1081 1050 927 810 954 986 1086 992 1027 872 1360 920 566 1036 1040 227
338 564 863 1549 1913 1936 1957 1893 2022 1789 1752 1666 1128 1550 1670 1356 1465 1704 1395 1360 1674 1532 1317 1269 1209 1081 911 774 761 792 804 855 865 916 858 1057 922 1032 894 816 677 280 698
497 825 952 1633 1923 1974 1981 1579 1323 1075 990 1446 1536 1870 1052 1154 1402 1366 1419 1476 1608 1424 1267 1094 895 821 850 766 584 493 324 134 555 702 335 603 200 1089 830 1122 1438 582 1010
611 640 952 1650 1612 1629 1795 1809 1115 1791 818 576 1347 1499 1970 1319 940 1265 1447 1504 1387 1179 906 798 691 389 177 236 309 401 530 985 1741 33 61 93 132 1161 558 252 710 685 292
419 166 589 1618 1658 1763 1953 1611 675 1521 1727 617 686 1035 1301 1200 1414 1519 1475 1262 913 740 653 661 658 834 976 1079 1029 934 576 1453 785 47 0 550 51 1803 1275 539 738 1265 1248
428 638 1039 1226 1600 1899 1290 398 195 638 684 901 1040 1250 1038 853 922 953 875 872 945 964 1015 1035 1038 1216 1383 1392 1370 1045 649 958 1204 0 5 805 1323 1208 1237 1023 895 1153 1517
545 610 846 1143 1683 929 569 859 1070 536 738 875 923 995 1127 1045 1000 922 752 743 835 959 1056 1092 1057 1132 965 864 951 1098 1310 1384 1364 374 342 996 1063 914 1106 1496 1339 1254 1474
206 347 859 906 984 275 213 988 1721 1682 1081 1029 1105 1280 1216 1267 1163 1170 1146 172 618 981 1475 1590 1381 1054 856 1152 1357 1355 1386 1759 1312 522 914 412 478 586 1150 1366 1534 1192 1213
370 363 713 460 275 148 4 439 780 486 589 668 681 1031 1270 1623 985 1146 433 283 568 1016 35 155 957 1431 1774 1460 1769 1553 1604 603 592 1051 544 488 286 335 775 1019 1356 1152 1035
332 624 463 259 66 1 35 527 821 684 817 1282 1272 1304 1700 1163 973 687 1092 1350 1303 1273 393 256 1466 1674 730 292 295 370 170 152 178 714 247 145 51 273 1059 1008 992 970 900
232 214 156 346 219 354 224 826 804 962 1290 1202 1187 1544 1014 1740 1560 1806 1064 897 1809 1688 1587 1259 1528 990 1023 1414 1118 888 404 132 356 426 244 136 54 156 566 1028 1325 1152 1072
231 151 337 352 395 948 655 771 832 603 914 1069 1538 1363 990 1260 731 1287 474 487 930 871 1860 1779 1462 2324 2018 1531 1273 1060 588 237 220 260 389 156 86 179 501 853 1143 1226 868
118 122 431 338 460 1239 1108 1163 1398 1078 833 1300 1218 616 1484 1557 565 1900 1459 1831 1492 1392 1265 2135 1988 2042 2109 1569 1390 1139 779 423 330 310 487 259 252 331 331 454 613 803 1060
112 181 312 453 868 1413 1697 1273 1109 791 359 654 1649 1421 1036 1653 1288 1533 1875 1313 1788 2190 2189 2804 2058 2570 1891 1738 1657 827 669 642 505 259 287 651 588 477 188 144 94 144 357
31 324 461 376 759 1375 1966 1232 1107 732 622 549 1051 1205 984 1063 1729 1723 1463 1403 1525 1701 2053 1441 2405 2511 1794 1739 1416 797 461 213 367 320 326 202 246 251 0 0 0 0 0
51 519 632 624 730 1311 1663 1293 1233 1317 689 943 555 1407 1317 1230 1380 944 1303 2230 1932 1188 1523 1919 2680 2276 1995 2002 1364 512 303 163 252 455 404 408 178 89 15 0 0 0 0
112 643 807 528 704 1046 1503 1749 1055 1286 755 861 763 1638 1496 1222 1161 1643 1075 1637 1729 1566 2163 2413 2335 2273 2288 1961 1251 296 374 222 504 449 484 372 83 30 37 12 0 0 0
112 485 618 354 987 772 1227 1091 1108 837 973 809 739 1802 1714 1140 1467 1589 1360 1872 1844 1682 1749 2488 2154 2172 2008 1850 986 193 433 499 653 708 671 453 374 145 19 0 0 0 0
70 335 545 491 844 619 681 926 948 990 1068 580 661 977 1211 1334 1284 1710 1768 1608 1596 2018 1751 2759 2707 2356 1937 1692 1133 440 151 343 653 1046 791 753 483 122 113 366 379 0 0
91 359 559 665 919 687 648 780 965 1455 1125 1172 961 1605 1448 1573 1837 2038 2203 2690 2526 2353 2171 2534 2890 2684 2401 2296 1112 531 271 94 1002 1092 1056 1077 716 478 542 578 714 377 1
146 378 645 832 982 1042 735 754 690 749 826 968 1198 924 1551 1958 2013 2209 2478 2612 2964 2967 2695 2697 3023 2917 2719 2118 1860 986 388 976 1160 1193 1191 1081 1141 820 798 585 624 265 47
160 375 493 859 1276 1320 838 1229 711 922 660 895 1115 1148 1522 2128 2153 2514 2443 2746 2694 2823 2759 2229 2675 3063 2696 2304 1823 842 524 705 924 1204 1049 1050 1064 1197 1044 824 515 74 138
378 204 407 1059 1076 1657 1718 859 1658 774 692 1267 1162 1393 2152 1568 2287 2284 2371 2615 2447 2713 2684 2308 3005 3164 2916 2693 2194 1601 1202 1157 1444 1386 1319 1555 1399 1014 1017 835 464 196 69
CIN
-74 -4 -26 -16 -34 -16 0 -11 -2 0 0 0 0 0 0 0 -2 -1 0 0 0 0 0 0 0 0 0 -4 -25 -25 -28 -46 -41 -47 -61 -69 -83 -94 -72 -30 -27 -2 -1
-50 -19 -18 -25 -25 -7 -7 -5 -2 -1 0 -2 0 0 0 0 0 0 0 0 0 0 0 -6 -9 -1 -6 -2 -1 -21 -26 -23 -22 -29 -18 -27 -46 -67 -67 -15 -1 -12 -3
-61 -3 -29 -11 -1 -5 -4 -5 -4 0 0 0 -1 -1 0 0 0 0 -3 0 0 0 0 0 0 -4 0 0 0 -2 -25 -39 -48 -27 -1 -6 -19 -41 -54 -43 -13 -14 -45
-4 -33 -52 -32 -4 -3 -1 0 0 0 0 0 -1 0 0 0 0 -1 0 0 0 0 0 -2 -3 -6 -15 -20 -23 -37 -52 -52 -49 -22 -11 -21 -2 -33 -46 -37 -6 -5 -59
-10 -2 -50 -5 0 0 0 0 0 0 0 0 -7 0 0 -1 0 0 0 0 0 0 -3 -7 -9 -15 -32 -44 -53 -61 -68 -66 -63 -44 -51 -7 -12 -63 -58 -42 -34 -65 -16
-4 -33 -55 -4 0 0 0 -3 -8 -14 -12 -1 -3 0 -9 -4 0 0 0 0 0 -1 -12 -24 -35 -39 -43 -56 -71 -88 -98 -94 -56 -25 -55 -13 -114 -35 -59 -36 -3 -36 -9
-18 -57 -61 -3 -1 -3 0 0 -10 -1 -23 -51 -2 -1 0 0 -17 -3 0 0 -7 -23 -42 -51 -63 -89 -138 -129 -116 -105 -101 -69 -44 -270 -44 -39 -116 -43 -67 -80 -56 -49 -90
-16 -68 -74 -1 -2 0 0 -1 -46 -2 0 -50 -45 -23 -14 -18 -10 -10 -10 -23 -42 -54 -63 -70 -79 -80 -78 -76 -80 -90 -99 -57 -119 -216 0 -111 -97 -25 -37 -75 -73 -38 -33
-8 -39 -23 -2 0 0 -4 -100 -137 -61 -52 -35 -34 -30 -44 -52 -50 -44 -48 -49 -51 -60 -67 -68 -71 -67 -67 -77 -81 -95 -104 -100 -105 0 -80 -118 -47 -66 -53 -55 -63 -46 -20
-10 -20 -12 -5 0 -25 -77 -40 -26 -83 -61 -54 -56 -52 -52 -52 -54 -58 -66 -69 -77 -80 -78 -78 -84 -72 -88 -83 -92 -105 -103 -108 -101 -129 -159 -80 -83 -68 -50 -37 -36 -31 -20
-21 -32 -11 -16 -13 -107 -130 -35 -2 -7 -43 -57 -63 -53 -55 -17 -26 -55 -49 -97 -83 -60 -40 -53 -64 -68 -84 -75 -68 -68 -87 -93 -14 -150 -106 -128 -114 -88 -52 -44 -30 -30 -20
-8 -22 -3 -40 -83 -114 -9 -87 -42 -67 -62 -68 -38 -30 -49 -16 -55 -14 -47 -90 -79 -86 -58 -117 -94 -66 -62 -51 -22 -19 -40 -18 -13 -62 -111 -123 -114 -114 -86 -59 -35 -39 -31
-19 -6 -13 -63 -132 -4 -120 -60 -41 -35 -25 -20 -7 -34 -28 -11 -18 -21 -38 -56 -63 -88 -75 -104 -40 -19 -21 -28 -32 -38 -49 -34 -21 -21 -102 -102 -119 -114 -71 -66 -57 -52 -47
-25 -18 -38 -39 -70 -30 -36 -27 -15 -11 -11 -9 -16 -7 -15 -12 -7 -12 -32 -79 -39 -35 -61 -47 -10 -23 -30 -24 -31 -36 -53 -58 -33 -19 -108 -113 -112 -112 -95 -74 -54 -48 -42
-29 -51 -22 -53 -45 -7 -17 -9 -5 -5 -16 -24 -19 -8 -67 -32 -16 -16 -24 -52 -44 -28 -9 -13 -14 -9 -10 -4 -2 -2 -20 -31 -36 -34 -70 -117 -131 -113 -87 -74 -57 -41 -36
-51 -70 -41 -72 -58 -4 -9 -7 -3 -12 -43 -35 -11 -16 -6 -22 -33 -16 -11 -8 -10 -10 -15 -8 -18 -17 -8 -9 -16 -11 -11 -2 -4 -33 -17 -61 -93 -91 -102 -90 -80 -67 -46
-65 -60 -79 -69 -36 -9 -5 -11 -11 -4 -11 -5 -14 -21 -12 -10 -13 -17 -17 -10 -9 -6 -5 -8 -17 -9 -6 -23 -18 -15 -6 -4 -6 -18 -13 -20 -55 -76 -131 -127 -135 -114 -92
-102 -43 -47 -53 -46 -8 -3 -11 -10 -8 -4 -3 -6 -22 -22 -30 -16 -17 -19 -10 -11 -9 -4 -5 -7 -18 -24 -22 -12 -13 -15 -79 -40 -30 -18 -38 -19 -66 0 0 0 0 0
-76 -33 -25 -15 -47 -16 -3 -11 -10 -2 -9 -6 -9 -25 -32 -24 -22 -31 -29 -14 -17 -18 -15 -3 -14 -31 -23 -21 -15 -97 -115 -147 -111 -51 -41 -24 -75 -72 -33 0 0 0 0
-95 -33 -19 -38 -50 -34 -7 -2 -9 -3 -12 -11 -8 -15 -27 -20 -22 -12 -25 -7 -14 -17 -7 -17 -24 -31 -23 -49 -53 -93 -96 -182 -142 -108 -62 -36 -101 -83 -61 -106 0 0 0
-111 -61 -57 -84 -40 -63 -22 -24 -7 -11 -7 -8 -10 -16 -14 -15 -8 -19 -35 -6 -12 -20 -21 -11 -15 -19 -64 -52 -81 -146 -51 -66 -46 -27 -30 -33 -29 -51 -91 -1 0 0 0
-201 -117 -87 -94 -67 -95 -77 -49 -22 -5 -3 -14 -7 -8 -10 -23 -25 -7 -23 -25 -38 -23 -24 -7 -18 -36 -46 -84 -88 -133 -119 -82 -86 -56 -35 -22 -34 -76 -48 -36 -27 0 0
-219 -125 -115 -113 -93 -109 -91 -54 -22 -5 -10 -10 -8 -11 -16 -23 -19 -6 -2 -2 -16 -29 -31 -5 -12 -40 -29 -40 -128 -141 -140 -124 -51 -38 -22 -19 -36 -56 -46 -37 -38 -17 -32
-227 -146 -107 -96 -94 -96 -89 -68 -70 -56 -35 -19 -5 -14 -7 -20 -20 -15 -12 -13 -12 -19 -13 -13 -14 -28 -23 -29 -54 -84 -100 -31 -12 -3 -27 -17 -19 -31 -41 -60 -28 -39 -46
-248 -173 -154 -100 -62 -64 -93 -62 -89 -56 -77 -41 -13 -9 -8 -7 -17 -11 -17 -6 -26 -33 -33 -53 -28 -30 -26 -30 -53 -154 -137 -87 -33 -7 -22 -22 -25 -17 -26 -38 -27 -47 -46
-170 -264 -203 -99 -90 -43 -47 -93 -35 -94 -98 -25 -24 -6 -7 -12 -11 -16 -20 -21 -47 -45 -44 -67 -39 -44 -64 -79 -77 -112 -105 -49 -8 -16 -5 -2 -1 -16 -19 -14 -50 -66 -134
Wind_Speed
30 26 21 18 18 19 24 27 25 17 9 14 6 12 17 19 20 20 22 21 21 20 21 19 16 22 22 22 23 24 22 21 21 22 22 22 22 21 19 18 18 19 19
27 28 23 20 18 25 27 27 26 24 17 15 12 19 20 20 21 20 18 22 22 21 20 20 17 17 20 23 21 23 20 18 19 20 21 22 23 22 20 19 19 18 19
30 30 28 23 19 24 26 26 24 18 20 20 21 21 21 22 21 18 17 16 19 20 19 19 17 16 17 20 18 16 14 15 15 16 17 18 20 21 20 19 18 18 18
29 30 29 26 25 23 26 26 23 23 22 21 21 21 20 18 18 19 19 20 20 19 17 17 16 14 13 12 11 13 13 12 12 13 13 15 16 18 20 18 18 17 17
30 29 27 29 28 27 25 24 23 23 23 23 22 22 21 20 19 21 20 20 19 18 16 15 14 14 12 12 12 12 13 13 14 15 15 14 15 17 18 17 16 16 16
27 25 26 27 27 25 24 23 24 23 23 24 24 24 23 23 22 22 22 22 21 20 18 16 15 15 14 14 14 13 14 14 17 23 19 13 19 15 15 15 15 15 15
22 23 22 25 25 24 24 24 24 25 26 25 25 25 26 25 25 24 23 22 21 20 19 17 15 10 13 8 13 12 11 9 17 20 32 10 15 14 14 13 14 14 14
22 22 23 25 24 23 23 24 25 26 27 25 25 24 24 24 23 22 21 20 18 17 15 14 14 15 15 14 13 12 10 13 19 23 27 14 13 15 16 13 12 12 12
22 21 22 22 24 23 23 24 25 26 26 25 24 24 24 24 23 22 21 20 18 17 16 16 16 15 13 12 11 11 9 10 12 16 20 19 16 18 16 14 12 12 11
23 23 23 23 23 24 24 25 26 26 25 24 23 23 23 23 23 23 21 20 20 19 19 19 17 15 12 11 10 9 8 6 7 11 16 18 19 20 16 13 12 11 11
20 22 21 23 22 21 21 25 25 25 24 23 22 22 21 21 22 23 22 23 22 20 14 12 13 12 9 9 8 8 6 5 3 14 16 18 20 20 17 15 12 11 12
18 22 21 20 21 24 24 25 25 25 23 21 21 20 18 19 22 23 23 23 21 23 17 13 11 10 7 8 8 8 8 5 24 18 17 18 22 21 18 15 13 12 12
23 23 25 21 22 27 21 27 25 24 22 20 18 19 18 22 22 20 20 18 19 22 17 15 13 14 12 16 26 25 24 25 24 19 18 19 21 19 18 16 16 15 13
26 19 25 17 25 25 26 26 23 24 23 21 18 18 22 19 18 20 21 10 15 19 16 14 18 17 14 19 26 27 26 26 25 23 17 18 20 18 17 16 16 16 16
22 17 24 13 29 26 27 24 21 23 22 21 20 20 17 17 18 16 21 21 21 15 22 22 18 17 14 19 23 27 27 27 26 26 17 18 20 20 19 19 18 16 15
27 20 10 17 29 27 24 22 19 20 21 22 21 20 17 14 18 14 13 15 13 21 14 15 19 18 11 21 27 28 28 27 26 27 24 18 20 21 20 21 21 20 18
29 26 18 22 30 28 24 24 23 20 20 19 24 19 20 19 19 16 13 16 18 17 16 13 16 15 23 26 22 16 25 27 26 25 25 22 22 22 22 22 22 21 20
28 28 22 26 26 29 25 27 25 21 22 20 20 19 20 19 18 16 14 14 17 14 10 14 18 22 16 16 17 14 15 6 5 23 22 24 21 18 20 22 23 23 22
26 27 25 28 22 27 27 26 24 22 21 19 19 18 19 18 18 17 14 18 15 11 8 16 20 21 15 11 14 12 18 17 12 13 21 16 18 22 19 20 22 23 20
25 24 26 28 21 23 25 26 25 22 22 20 18 16 18 17 17 15 15 10 14 9 8 16 14 13 9 16 18 12 15 17 18 16 17 20 21 22 21 22 22 19 17
24 24 27 26 21 21 25 26 25 22 20 20 18 16 15 15 14 13 14 11 10 11 8 9 8 6 10 18 17 21 17 15 18 19 12 18 17 17 21 20 16 21 18
23 23 26 25 21 21 25 23 23 22 20 18 18 14 12 12 13 12 12 12 12 8 8 6 7 7 9 16 22 21 18 18 26 21 21 18 19 17 20 24 15 18 19
24 23 24 24 23 22 23 23 23 23 22 20 15 11 11 12 12 12 12 11 12 10 8 5 5 5 7 11 15 20 24 22 23 24 24 26 17 19 22 23 21 18 15
26 24 23 23 24 22 26 20 21 20 19 17 15 13 11 12 11 11 13 13 14 11 8 4 3 4 2 5 7 6 11 11 16 19 24 26 24 19 21 20 20 21 17
25 24 23 23 23 21 23 25 20 18 18 18 16 16 12 10 11 13 13 13 13 10 7 5 1 2 4 6 8 8 8 10 14 17 19 20 26 23 16 17 15 17 19
26 24 24 23 24 22 21 26 23 18 21 17 18 16 10 10 11 13 14 13 11 8 4 2 3 4 8 7 10 9 10 13 15 18 19 21 27 27 23 24 17 18 20
Wind_Direction
143 152 164 173 174 175 148 141 139 167 11 26 333 19 36 40 42 47 53 54 56 53 57 43 26 56 52 53 57 80 114 126 117 98 79 68 61 43 29 25 75 42 45
112 147 162 170 175 155 106 125 112 93 39 26 13 42 51 53 55 50 36 58 59 57 50 45 33 34 45 67 47 101 122 136 129 117 103 92 80 63 50 33 33 46 46
126 137 143 160 171 151 112 118 102 53 56 52 56 60 57 62 58 39 32 31 45 45 39 38 32 28 25 58 121 145 156 160 159 146 139 115 97 72 55 47 48 48 40
118 128 120 153 151 95 102 105 87 92 80 65 67 61 54 43 42 50 45 50 51 45 27 28 21 6 345 327 198 167 173 184 208 222 194 160 78 68 50 49 52 48 42
125 116 104 133 120 110 100 95 91 84 83 81 77 77 66 56 53 58 50 48 45 32 19 12 356 341 295 263 251 207 196 222 224 258 275 273 62 63 58 58 60 53 48
106 101 101 112 116 101 101 95 97 94 100 94 89 96 80 76 75 72 73 70 59 45 30 15 355 329 306 282 245 216 208 216 261 336 304 56 17 52 54 55 36 44 39
91 96 96 109 108 107 105 103 103 114 104 119 125 115 103 99 101 99 95 96 100 94 86 84 90 245 305 273 169 144 163 147 27 38 5 250 60 76 57 43 47 44 40
97 100 101 109 106 98 94 101 108 127 116 123 119 113 112 113 113 113 112 114 116 119 129 148 154 157 158 151 151 139 152 68 33 35 31 111 103 93 88 50 56 55 47
95 96 99 100 109 98 97 104 112 128 119 118 118 120 117 116 117 118 113 117 121 124 130 137 146 151 163 178 167 145 127 104 76 61 59 75 94 75 89 93 70 55 51
104 104 105 104 107 110 109 111 126 118 121 127 130 128 130 126 117 115 118 123 124 126 128 132 138 150 158 157 158 166 180 187 134 94 71 71 69 58 72 73 60 54 45
96 106 103 109 109 99 95 123 137 125 134 137 138 137 135 136 123 113 116 118 120 119 133 150 146 149 176 181 185 193 187 112 90 97 75 59 50 47 51 44 47 39 28
100 115 108 102 105 118 111 121 134 130 136 146 146 139 151 142 129 122 116 122 122 109 124 135 145 147 159 152 109 110 95 109 31 64 58 48 32 34 40 46 49 43 35
121 116 126 111 112 136 100 143 134 135 142 147 161 139 152 133 121 128 124 133 126 112 107 119 115 107 111 81 24 347 337 344 358 30 38 36 30 33 38 44 42 37 33
134 107 128 101 129 129 141 153 144 142 138 135 147 152 121 137 132 111 95 194 155 127 128 120 93 92 98 58 2 358 337 354 359 11 42 38 33 35 35 38 34 30 25
125 109 132 96 165 157 161 169 172 133 121 130 141 144 155 158 149 147 118 130 115 141 87 76 87 81 77 47 21 0 332 340 351 342 35 35 33 34 31 23 18 24 22
140 120 100 113 176 176 179 191 190 109 138 143 147 150 161 175 148 165 163 145 155 97 122 101 69 71 80 44 14 3 336 337 341 339 350 23 22 24 27 21 10 7 11
150 139 118 127 165 176 185 186 178 176 158 169 129 144 164 148 154 161 168 140 121 107 105 111 76 78 43 29 34 40 5 339 326 347 345 8 8 8 10 14 13 7 5
149 148 131 145 146 164 177 171 174 174 164 163 145 125 145 162 169 176 164 135 89 115 132 85 61 46 60 53 51 58 57 103 186 352 2 2 11 31 18 12 12 8 2
148 147 141 154 136 152 169 164 184 183 190 189 163 128 133 141 148 166 180 67 74 134 176 54 47 46 56 62 60 59 61 66 73 58 18 31 19 9 14 13 10 6 4
147 146 149 157 140 144 155 176 178 177 182 195 181 110 124 142 147 140 171 161 52 121 108 55 64 57 68 55 41 47 53 58 51 46 26 15 14 9 12 10 7 14 16
148 150 158 156 144 144 156 164 172 172 156 173 180 113 114 140 134 138 166 153 98 123 162 85 78 88 59 38 42 40 44 53 45 28 35 19 12 17 10 9 22 16 13
154 155 158 158 151 152 162 159 170 171 162 161 170 136 127 129 148 134 148 172 185 164 184 141 85 73 43 39 25 20 38 42 17 28 18 20 16 10 8 2 12 5 7
160 160 161 162 160 160 162 166 172 186 190 191 160 126 137 145 149 154 158 161 182 189 187 141 95 57 43 36 37 23 16 22 18 20 17 11 10 5 4 358 356 359 12
165 163 163 165 166 165 171 163 170 168 171 167 164 163 148 150 152 159 178 182 193 193 189 117 91 34 48 25 42 63 34 19 17 14 11 3 7 6 2 1 2 359 353
166 165 166 168 169 168 171 177 170 168 173 180 173 180 163 149 153 164 173 178 189 188 191 199 220 25 31 22 25 17 3 6 8 3 0 8 2 1 360 1 1 3 358
169 167 167 169 174 172 172 181 180 173 181 172 182 181 139 153 156 171 179 175 180 179 176 188 16 6 4 7 10 1 358 5 2 1 356 359 2 4 5 358 2 358 2